sat.trackr.live / text

‹ back to catalog

STARLINK-34809

NORAD 65069 · 2025-165P

PAYLOAD ACTIVE UNKNOWN

§ Identity

Operator
Country
US
Launch date
2025-07-31
Launch site
AFWTR
Launch vehicle
Mass (kg)
RCS (m²)

Purposes: comms

External: N2YO · Heavens-Above · Gunter

§ Orbital elements

Epoch: 2026-09-20T22:00:03.000096Z

Period
93.91 min
Inclination
97.2855°
Eccentricity
0.0001599
Mean motion
15.33445990 rev/d
Perigee alt
464.4 km
Apogee alt
466.6 km
Semi-major
6,843.7 km
B*
-9.0279e-4
RAAN
335.0695°
Arg perigee
91.8375°
Mean anomaly
318.9328°
Rev number
579

§ Raw data

STARLINK-348091 65069U 25165P   26263.91670139 -.00029111  00000+0 -90279-3 0  99952 65069  97.2855 335.0695 0001599  91.8375 318.9328 15.33445990  5790

JSON: /api/v1/satellites/65069 · /tle

For live sub-satellite position, see the globe view (requires WebGL).

§ Visibility from observer

Set your observer location to see the next 7 days of passes ≥ 10°. The values pass through the URL so the page stays shareable.

No JS? Fill the form by hand. The geolocation button needs JavaScript.